Home   Weather   Red Deer   Past weeks

Flag for Canada Past Weather in Red Deer, Alberta, Canada — Yesterday and Last 2 Weeks

Now
45 °F

Overcast.


Feels Like: 39 °F
Forecast: 36 / 52 °F
Wind: 12 mph from Southeast

Location: Red Deer

Current Time: Apr 29, 2017 at 11:28:10 pm

Latest Report: Apr 29, 2017 at 10:00 pm


Visibility: 15 mi

Pressure: 29.93 "Hg (26.96 "Hg at 857m altitude)

Humidity: 61%

Dew Point: 32 °F

Location of Red DeerLocation

Past Weather in Red Deer — Graph

°F

Red Deer Temperature Yesterday

Maximum temperature yesterday: 48 °F (at 4:00 pm)
Minimum temperature yesterday: 28 °F (at 5:00 am)
Average temperature yesterday: 38 °F

High & Low Weather Summary for the Past Weeks

 TemperatureHumidityPressure
High59 °F (Apr 20, 4:00 pm)100% (Apr 18, 8:00 am)30.44 "Hg (Apr 18, 8:00 am)
Low12 °F (Apr 16, 7:00 am)25% (Apr 20, 4:00 pm)29.78 "Hg (Apr 26, 5:00 pm)
Average35 °F80%30.03 "Hg
* Reported Apr 14 10:00 pm — Apr 29 10:00 pm, Red Deer, Weather by CustomWeather, © 2017

Note: Actual official high and low records may vary slightly from our data, if they occured in-between our weather recording intervals... More about our weather records

Advertising

Red Deer Weather History for the Previous 24 Hours

Scroll right to see more
 ConditionsComfort  
Time TempWeatherWind HumidityBarometerVisibility
10:00 pm
Sat, Apr 29
45 °FOvercast.12 mph61%29.93 "Hg15 mi
9:00 pm46 °FMostly cloudy.9 mph57%29.95 "Hg15 mi
8:00 pm48 °FPartly sunny.10 mph50%29.97 "Hg15 mi
7:00 pm50 °FBroken clouds.16 mph47%29.99 "Hg15 mi
6:00 pm54 °FBroken clouds.5 mph33%30.02 "Hg15 mi
5:00 pm54 °FBroken clouds.2 mph33%30.05 "Hg15 mi
4:00 pm55 °FPartly sunny.10 mph33%30.06 "Hg15 mi
3:00 pm54 °FBroken clouds.12 mph30%30.08 "Hg15 mi
2:00 pm54 °FBroken clouds.12 mph35%30.09 "Hg15 mi
1:00 pm48 °FScattered showers. Partly sunny.3 mph46%30.13 "Hg15 mi
12:00 pm48 °FPartly sunny.7 mph54%30.16 "Hg15 mi
11:00 am48 °FBroken clouds.3 mph54%30.17 "Hg15 mi
10:00 am45 °FBroken clouds.3 mph66%30.19 "Hg15 mi
9:00 am41 °FBroken clouds.5 mph76%30.19 "Hg15 mi
8:00 am36 °FScattered clouds.3 mph87%30.20 "Hg15 mi
7:00 am27 °FScattered clouds.5 mph100%30.21 "Hg15 mi
6:00 am27 °FPassing clouds.No wind93%30.21 "Hg15 mi
5:00 am25 °FPassing clouds.3 mph93%30.21 "Hg15 mi
4:00 am28 °FPassing clouds.2 mph86%30.20 "Hg15 mi
3:00 am28 °FPassing clouds.6 mph86%30.21 "Hg15 mi
2:00 am30 °FPassing clouds.3 mph86%30.21 "Hg15 mi
1:00 am30 °FPassing clouds.3 mph80%30.21 "Hg15 mi
12:00 am30 °FPassing clouds.5 mph75%30.22 "Hg15 mi
11:00 pm
Fri, Apr 28
34 °FPassing clouds.6 mph70%30.22 "Hg15 mi
Weather by CustomWeather, © 2017

See weather overviewHow to use our weather pages